Showing default

QIANFAN-101, 66043

Orbit data source: Space-Track

QIANFAN-101, 66043 is a Chinese payload satellite in LEO that was launched on Fri, 17 Oct 2025 UTC via a CHANG ZHENG 6A launch vehicle from the Taiyaun Space Center, China (TSC). Payload-class satellites include a variety of spacecraft equipped with specific instruments for various scientific and technological missions. These include communications satellites like Starlink; space stations such as the ISS; scientific satellites like the Hubble; Earth observation satellites from companies like Planet Labs, Umbra, and HawkEye 360; GPS; miniature CubeSats for education and research; and military/defense satellites.

Loading next visibility...
Identifier
66043, 2025-233L
Orbit
LEO
Country
Flag of CNCN / PRC
Related business
Manufacturer
SECM
Mission
Partially operational Commercial Communications
Bus & Motor
QIANFAN, Unknown motor
Mass
267 kg wet, ~267 kg dry
Launch date (UTC)
2025-10-17 (8 months ago)
Launch vehicle
CHANG ZHENG 6A
Launch site
Taiyaun Space Center, China (TSC)
Object type
Payload
Rocket body
Debris
Shape & HBR
Box + 1 Pan, 14.5 m
Radar Cross Section
13.200 m², Large (>1 m²)

Expand to show TLE details & history
Last TLE update: 7 hours ago

TLE from 7 hours ago
0 QIANFAN-101
1 66043U 25233L   26177.69176984  .00000322  00000-0  12662-3 0  9994
2 66043  88.9995  39.4782 0017361 109.5662 250.7409 14.26813211 35980
Epoch: 2026-06-26T16:36Z
TLE epoch observation values (Epoch: 2026-06-26T16:36:08.914Z)
Latitude
0.00007°
Longitude
-124.37558°
Altitude
809.598 km
Speed
7.446 km/s
True Right ascension
02h 37m 54s
True Declination
0° 00' 00"
Sunlit
Object was in daylight at epoch
Visualization orbit readout
Latitude
Unknown
Longitude
Unknown
Altitude
Unknown
Speed
Unknown
Apparent Right ascension
Unknown
Apparent Declination
Unknown
Sunlit
N/A
Visualization observer readout
Local Sidereal Time
10:57:43
Azimuth
Unknown
Elevation
Unknown
Doppler factor
Unknown
Orbital elements
Apogee altitude
811.805 km
Perigee altitude
786.883 km
Semi-major axis
7,177.481 km
Eccentricity
0.00174
Inclination
88.9995°
RAAN
39.4782°
Arg. of periapsis
109.5662°
True anomaly
250.55323°
Mean anomaly
250.7409°
Eccentric anomaly
250.64705°
Mean motion
3.56932 °/min
Orbital period
100.86 mins
BSTAR
0.00012662
Loading maneuver chart data...
Computing Atmospheric mass density...
Loading historical data...
Loading historical data...
Loading historical data...
Loading historical data...
Loading historical data...
Loading historical data...
Loading historical data...

Documentation

Showing up to 5 results
|